Location: Memphis
(29.8667°N, 31.2500°E)
Time: 07:35:28
(UTC+00:00)

Meteor 1-5 Rocket - Pass Details

Date: 03 March 2021
Orbit: 790 x 914 km, 81.2° (Epoch: 15 April)

Event Time Altitude Azimuth Distance (km) Brightness Sun altitude
Rises 16:43:48 0° 172° (S) 3,270 7.2 -11.3°
Reaches altitude 10° 16:46:13 10° 166° (SSE) 2,349 6.4 -11.8°
Maximum altitude 16:51:16 48° 93° (E) 1,038 4.3 -12.9°
Drops below altitude 10° 16:56:27 10° 20° (NNE) 2,407 6.4 -14.0°
Sets 16:58:56 0° 15° (NNE) 3,360 7.2 -14.5°
